Torna al catalogo

STARLINK-35171

AttivoComunicazioniSSO
NORAD 65605·PAYLOAD·🇺🇸 United States

Lanciato Sep 13, 2025 da Cape Canaveral Space Force Station

Loading…

Prossimi Passaggi (prossime 24 ore)

TLE

AggiornatoSource: CelesTrak SupGP

Epoca: Sep 14, 2026, 22:38 UTC

1 65605C 25207P   26257.94354167  .02292000  00000+0  11516+0 0  2573
2 65605  97.2840 320.6595 0001868  87.0276 266.5378 15.16199528    12

Traccia STARLINK-35171 in tempo reale con AllMySat

Download on the App Store